• In Romania
  • List of Countries
  • For 7 days
  • Water Temperature
  • Satellite Maps
  • Weather Map
  • Weather Widgets
  • user-avatar
    Login

    Hourly Weather Mendoza

    Today, 24 November, Friday

    Time Temperature Precipitation Wind Pressure Humidity
    00:00 +20°C° 0 mm 3 mps 698 mmHg 22%
    01:00 +19°C° 0 mm 3 mps 698 mmHg 23%
    02:00 +18°C° 0 mm 3 mps 698 mmHg 25%
    03:00 +17°C° 0 mm 3 mps 697 mmHg 27%
    04:00 +17°C° 0 mm 3 mps 697 mmHg 29%
    05:00 +17°C° 0 mm 3 mps 697 mmHg 28%
    06:00 +18°C° 0 mm 4 mps 698 mmHg 28%
    07:00 +19°C° 0 mm 4 mps 698 mmHg 27%
    08:00 +20°C° 0 mm 4 mps 698 mmHg 25%
    09:00 +22°C° 0 mm 4 mps 698 mmHg 22%
    10:00 +25°C° 0 mm 5 mps 698 mmHg 19%
    11:00 +26°C° 0 mm 4 mps 698 mmHg 18%
    12:00 +27°C° 0 mm 4 mps 698 mmHg 17%
    13:00 +28°C° 0 mm 4 mps 698 mmHg 15%
    14:00 +28°C° 0 mm 4 mps 697 mmHg 15%
    15:00 +29°C° 0 mm 4 mps 697 mmHg 14%
    16:00 +29°C° 0 mm 3 mps 697 mmHg 14%
    17:00 +28°C° 0 mm 3 mps 697 mmHg 16%
    18:00 +27°C° 0 mm 3 mps 698 mmHg 17%
    19:00 +26°C° 0 mm 3 mps 698 mmHg 19%
    20:00 +25°C° 0 mm 2 mps 698 mmHg 22%
    21:00 +24°C° 0 mm 2 mps 699 mmHg 24%
    22:00 +23°C° 0 mm 1 mps 699 mmHg 27%
    23:00 +23°C° 0 mm 2 mps 699 mmHg 28%

    Tomorrow, 25 November, Saturday

    Time Temperature Precipitation Wind Pressure Humidity
    00:00 +21°C° 0 mm 2 mps 699 mmHg 29%
    01:00 +21°C° 0 mm 2 mps 698 mmHg 30%
    02:00 +20°C° 0 mm 2 mps 698 mmHg 32%
    03:00 +20°C° 0 mm 2 mps 698 mmHg 33%
    04:00 +19°C° 0 mm 2 mps 698 mmHg 34%
    05:00 +21°C° 0 mm 2 mps 699 mmHg 30%
    06:00 +24°C° 0 mm 2 mps 699 mmHg 26%
    07:00 +26°C° 0 mm 2 mps 700 mmHg 21%
    08:00 +27°C° 0 mm 3 mps 700 mmHg 20%
    09:00 +28°C° 0 mm 3 mps 700 mmHg 18%
    10:00 +29°C° 0 mm 3 mps 700 mmHg 17%
    11:00 +30°C° 0 mm 3 mps 700 mmHg 16%
    12:00 +31°C° 0 mm 3 mps 699 mmHg 15%
    13:00 +33°C° 0 mm 3 mps 698 mmHg 14%
    14:00 +33°C° 0 mm 3 mps 698 mmHg 15%
    15:00 +33°C° 0 mm 3 mps 698 mmHg 15%
    16:00 +33°C° 0 mm 3 mps 697 mmHg 15%
    17:00 +31°C° 0 mm 3 mps 697 mmHg 17%
    18:00 +30°C° 0 mm 2 mps 698 mmHg 19%
    19:00 +29°C° 0 mm 2 mps 698 mmHg 21%
    20:00 +28°C° 0 mm 2 mps 698 mmHg 23%
    21:00 +27°C° 0 mm 2 mps 698 mmHg 24%
    22:00 +27°C° 0 mm 3 mps 699 mmHg 26%
    23:00 +26°C° 0 mm 3 mps 698 mmHg 27%

    Day after tomorrow, 26 November, Sunday

    Time Temperature Precipitation Wind Pressure Humidity
    00:00 +25°C° 0 mm 3 mps 697 mmHg 28%
    01:00 +25°C° 0 mm 3 mps 696 mmHg 28%
    02:00 +24°C° 0 mm 2 mps 696 mmHg 29%
    03:00 +23°C° 0 mm 2 mps 696 mmHg 29%
    04:00 +23°C° 0 mm 2 mps 695 mmHg 29%
    05:00 +24°C° 0 mm 2 mps 696 mmHg 26%
    06:00 +26°C° 0 mm 2 mps 696 mmHg 22%
    07:00 +28°C° 0 mm 2 mps 696 mmHg 19%
    08:00 +29°C° 0 mm 3 mps 696 mmHg 18%
    09:00 +31°C° 0 mm 3 mps 696 mmHg 17%
    10:00 +33°C° 0 mm 4 mps 696 mmHg 16%
    11:00 +34°C° 0 mm 4 mps 695 mmHg 15%
    12:00 +35°C° 0 mm 4 mps 695 mmHg 15%
    13:00 +36°C° 0 mm 3 mps 695 mmHg 15%
    14:00 +36°C° 0 mm 3 mps 694 mmHg 15%
    15:00 +36°C° 0 mm 3 mps 694 mmHg 15%
    16:00 +36°C° 0 mm 3 mps 694 mmHg 15%
    17:00 +35°C° 0.1 mm 3 mps 694 mmHg 17%
    18:00 +32°C° 0.1 mm 2 mps 695 mmHg 19%
    19:00 +31°C° 0.1 mm 2 mps 695 mmHg 21%
    20:00 +30°C° 0.1 mm 2 mps 696 mmHg 21%
    21:00 +30°C° 0.1 mm 3 mps 696 mmHg 22%
    22:00 +29°C° 0.1 mm 4 mps 697 mmHg 22%
    23:00 +28°C° 0.2 mm 5 mps 697 mmHg 25%

    27 November, Monday

    Time Temperature Precipitation Wind Pressure Humidity
    00:00 +27°C° 0.2 mm 7 mps 697 mmHg 27%
    01:00 +26°C° 0.2 mm 8 mps 697 mmHg 30%
    02:00 +24°C° 0 mm 7 mps 698 mmHg 30%
    03:00 +24°C° 0 mm 7 mps 698 mmHg 29%
    04:00 +23°C° 0 mm 6 mps 699 mmHg 29%
    05:00 +23°C° 0 mm 7 mps 700 mmHg 30%
    06:00 +22°C° 0 mm 8 mps 700 mmHg 31%
    07:00 +22°C° 0 mm 9 mps 701 mmHg 31%
    08:00 +23°C° 0 mm 8 mps 701 mmHg 31%
    09:00 +24°C° 0 mm 8 mps 701 mmHg 31%
    10:00 +24°C° 0 mm 7 mps 701 mmHg 30%
    11:00 +26°C° 0 mm 7 mps 701 mmHg 29%
    12:00 +27°C° 0 mm 6 mps 701 mmHg 27%
    13:00 +28°C° 0 mm 6 mps 700 mmHg 26%
    14:00 +28°C° 0 mm 6 mps 700 mmHg 27%
    15:00 +28°C° 0 mm 5 mps 700 mmHg 28%
    16:00 +27°C° 0 mm 5 mps 700 mmHg 29%
    17:00 +27°C° 0 mm 4 mps 700 mmHg 32%
    18:00 +26°C° 0 mm 4 mps 700 mmHg 35%
    19:00 +25°C° 0 mm 3 mps 700 mmHg 38%
    20:00 +24°C° 0 mm 3 mps 701 mmHg 39%
    21:00 +22°C° 0 mm 3 mps 701 mmHg 41%
    22:00 +22°C° 0 mm 3 mps 701 mmHg 43%
    23:00 +21°C° 0 mm 3 mps 700 mmHg 44%

    28 November, Tuesday

    Time Temperature Precipitation Wind Pressure Humidity
    00:00 +20°C° 0 mm 3 mps 700 mmHg 44%
    01:00 +20°C° 0 mm 2 mps 699 mmHg 45%
    02:00 +19°C° 0 mm 2 mps 699 mmHg 46%
    03:00 +19°C° 0 mm 2 mps 699 mmHg 47%
    04:00 +18°C° 0 mm 2 mps 699 mmHg 48%
    05:00 +20°C° 0 mm 2 mps 699 mmHg 44%
    06:00 +21°C° 0 mm 2 mps 699 mmHg 40%
    07:00 +22°C° 0 mm 3 mps 700 mmHg 35%
    08:00 +25°C° 0 mm 3 mps 699 mmHg 33%
    09:00 +27°C° 0 mm 3 mps 699 mmHg 31%
    10:00 +28°C° 0 mm 4 mps 699 mmHg 29%
    11:00 +30°C° 0 mm 4 mps 699 mmHg 28%
    12:00 +32°C° 0 mm 4 mps 698 mmHg 27%
    13:00 +33°C° 0 mm 4 mps 697 mmHg 26%
    14:00 +33°C° 0 mm 4 mps 697 mmHg 26%
    15:00 +33°C° 0 mm 4 mps 697 mmHg 26%
    16:00 +34°C° 0 mm 3 mps 697 mmHg 25%
    17:00 +33°C° 0.1 mm 3 mps 697 mmHg 28%
    18:00 +31°C° 0.1 mm 3 mps 697 mmHg 30%
    19:00 +30°C° 0.1 mm 2 mps 698 mmHg 32%
    20:00 +29°C° 0 mm 2 mps 698 mmHg 34%
    21:00 +29°C° 0 mm 2 mps 698 mmHg 35%
    22:00 +28°C° 0 mm 2 mps 698 mmHg 37%
    23:00 +27°C° 0 mm 2 mps 697 mmHg 38%

    29 November, Wednesday

    Time Temperature Precipitation Wind Pressure Humidity
    00:00 +27°C° 0 mm 2 mps 697 mmHg 38%
    01:00 +26°C° 0 mm 1 mps 696 mmHg 39%
    02:00 +26°C° 0 mm 2 mps 696 mmHg 41%
    03:00 +25°C° 0 mm 2 mps 696 mmHg 42%
    04:00 +25°C° 0 mm 2 mps 696 mmHg 44%
    05:00 +26°C° 0 mm 3 mps 697 mmHg 41%
    06:00 +28°C° 0 mm 3 mps 697 mmHg 37%
    07:00 +29°C° 0 mm 3 mps 697 mmHg 34%
    08:00 +31°C° 0 mm 3 mps 697 mmHg 32%
    09:00 +33°C° 0 mm 4 mps 697 mmHg 29%
    10:00 +34°C° 0 mm 4 mps 697 mmHg 27%
    11:00 +35°C° 0.1 mm 4 mps 696 mmHg 26%
    12:00 +36°C° 0.1 mm 4 mps 696 mmHg 25%
    13:00 +37°C° 0.1 mm 4 mps 695 mmHg 24%
    14:00 +37°C° 0.3 mm 4 mps 695 mmHg 24%
    15:00 +37°C° 0.3 mm 3 mps 695 mmHg 25%
    16:00 +36°C° 0.3 mm 3 mps 694 mmHg 25%
    17:00 +35°C° 0.7 mm 3 mps 695 mmHg 29%
    18:00 +34°C° 0.7 mm 3 mps 695 mmHg 33%
    19:00 +33°C° 0.7 mm 4 mps 695 mmHg 36%
    20:00 +32°C° 0.5 mm 4 mps 695 mmHg 38%
    21:00 +30°C° 0.5 mm 3 mps 695 mmHg 41%
    22:00 +30°C° 0.5 mm 3 mps 695 mmHg 43%
    23:00 +28°C° 0.7 mm 4 mps 695 mmHg 48%
    Show more